Regional Weather Roundup
Issued by NWS Northern Indiana

Home | Current Version | Previous Version | Text Only | Print | Product List | Glossary Off
Versions: 1 2 3 4 5 6 7 8 9 10 11 12 13 14 15 16 17 18 19 20 21 22 23 24 25 26 27 28 29 30 31 32 33 34 35 36 37 38 39 40 41 42 43 44 45 46 47 48 49 50

000
ASUS43 KIWX 170200
RWRIWX

KIWX WEATHER ROUNDUP
NATIONAL WEATHER SERVICE NORTHERN INDIANA
900 PM EST MON JAN 16 2017

NOTE: "FAIR" INDICATES FEW OR NO CLOUDS BELOW 12,000 FEET WITH NO
SIGNIFICANT WEATHER AND/OR OBSTRUCTIONS TO VISIBILITY.

* THESE STATIONS ARE NOT UNDER NWS QUALITY CONTROL. THEY ALSO MAY NOT
  REPORT WEATHER SUCH AS PRECIPITATION OR FOG.

INZ001>027-170300-
NORTHERN INDIANA

CITY           SKY/WX    TMP DP  RH WIND       PRES   REMARKS
GARY*          CLOUDY    39  39 100 E5        29.98F FOG
SOUTH BEND     LGT RAIN  35  35 100 E10       30.03F VSB 3/4 WCI  27
ELKHART*       DRIZZLE   36  36 100 E9        30.05F
GOSHEN         CLOUDY    36  34  92 SE10      30.04F FOG
FORT WAYNE     FOG       37  36  96 E6        30.07F VSB 1/4
PERU/GRISSOM   FOG       41  41 100 SE8       30.00F VSB 1/2

$$
INZ028>050-170300-
CENTRAL INDIANA

CITY           SKY/WX    TMP DP  RH WIND       PRES   REMARKS
LAFAYETTE      HVY RAIN  48  48 100 S6        29.99F FOG
KOKOMO*        LGT RAIN  42  42 100 SE9       30.03F VSB 1/4
MUNCIE*        CLOUDY    50  48  93 S8        30.05F
INDIANAPOLIS   LGT RAIN  50  49  96 SE13      30.02F VSB 1

$$
MIZ043>046-050>051-056>058-064>065-071>073-077>080-170300-
SOUTHWEST LOWER MICHIGAN

CITY           SKY/WX    TMP DP  RH WIND       PRES   REMARKS
BATTLE CREEK   LGT RAIN  34  33  96 SE7       30.10F FOG     WCI  28
BENTON HARBOR  CLOUDY    37  35  92 E10       30.03F FOG
COLDWATER*     MIX PCPN  34  34 100 E9        30.08F WCI  27
HILLSDALE*     MIX PCPN  32  32 100 SE8       30.11R VSB 1/2 WCI  25
HOLLAND        LGT RAIN  34  32  92 E8        30.07F WCI  27
GRAND RAPIDS   LGT RAIN  33  31  92 E13       30.08F FOG     WCI  24
KALAMAZOO      LGT RAIN  35  32  88 E8        30.07F FOG     WCI  29
STURGIS*       MIX PCPN  35  34  99 SE9       30.06F WCI  27
THREE RIVERS*  RAIN      34  34  99 SE8       30.07F WCI  27

$$
OHZ001>008-015>018-024>025-170300-
NORTHWEST OHIO

CITY           SKY/WX    TMP DP  RH WIND       PRES   REMARKS
DEFIANCE       LGT RAIN  37  34  89 E7        30.12F FOG
FINDLAY        CLOUDY    40  36  86 SE9       30.12F FOG
TOLEDO EXPRESS LGT RAIN  34  34 100 E5        30.14F FOG     WCI  30
TOLEDO METCALF CLOUDY    35  35 100 E6        30.16S FOG     WCI  30
LIMA           LGT RAIN  42  42 100 SE12      30.10F FOG

$$
AND FOR LAKE MICHIGAN COASTAL AND OPEN LAKE BUOY OBSERVATIONS

STATION/POSITION TEMP    WIND        PRES    VSBY  WAVE
                 AIR SEA DIR/SP/G                  HT/PER
                 (F)     (DEG/KT/KT) (MB)    (MI)  (FT/S)
CALUMET HARBOR    34      60/  8/ 10 1014.9F
MICHIGAN CITY     39     110/ 14/ 16   N/A
BURNS HARBOR      41     140/  6/ 12 1015.9F

$$
&&



USA.gov is the U.S. government's official web portal to all federal, state and local government web resources and services.